Main page
METAR-TAF:

METAR-TAF

Airports :

Parsabad, Iran

Parsabad-Moghan Airport

latitude: 39-36-13N, longitude: 47-52-53E, elevation: 77 m

Current weather observation

The report was made 21 minutes ago, at 20:00 UTC
Wind 4 kt from the West/Southwest
Temperature 1°C
Humidity 86%
Pressure 1019 hPa
Visibility 10 km or more
no clouds below 1500 m and no cumulonimbus

METAR: OITP 182000Z 25004KT CAVOK 01/M01 Q1019

Time: 23:51 (20:21 UTC)


TAF: missing

Weather observations and forecasts of more than 4000 airports (METAR and TAF reports).

The available stations are represented by yellow and red dots on the map.

Hover mouse over dot to see the name of the station.

Then click to see weather observations and forecasts.

To change the map : click on the green buttons with a black cross to zoom in, on the green button with a dash to zoom out, or on the green arrows for adjacent maps.


METAR-TAF: